Cloud_Cover
98 100 70 5 5 5 0 0 0 0 0 0 0 0 0 0 0 0 0 0 0 1 22 0 9 32 47 65 99 100 100 0 0 0 0 0 0 21 75 57 100 100 100
100 98 85 7 5 0 2 0 0 0 0 0 0 0 0 0 0 0 0 0 0 2 0 23 31 91 96 93 93 100 100 100 7 10 22 0 0 0 13 35 100 100 97
88 12 89 78 5 3 0 0 0 0 0 0 0 0 0 0 1 0 0 0 0 1 21 65 100 97 100 95 92 100 100 100 100 96 100 26 0 3 1 38 77 100 100
55 100 69 5 8 5 4 5 5 0 0 0 0 0 0 4 0 0 0 0 0 1 17 88 92 100 100 100 100 100 100 100 100 100 80 98 66 100 49 46 73 100 100
100 100 100 82 5 5 7 28 7 3 0 0 0 0 0 4 0 2 3 0 0 1 6 75 100 100 100 100 100 100 100 100 100 100 100 100 41 22 100 100 77 100 100
100 100 100 74 5 6 18 56 23 5 5 5 5 4 5 22 47 26 14 5 5 2 3 33 95 100 100 100 100 100 100 100 100 100 100 100 100 16 20 15 0 94 100
100 100 100 100 23 5 5 5 5 3 5 1 2 5 5 35 6 44 22 13 3 0 5 62 83 100 100 100 100 100 100 100 100 100 100 100 100 100 80 96 21 89 100
100 100 100 100 97 16 5 5 5 5 4 2 5 5 5 5 5 5 14 7 2 4 39 88 100 100 100 100 100 100 100 100 100 100 100 100 100 100 100 94 95 57 100
100 100 100 100 100 100 100 100 20 5 5 5 5 5 5 6 64 29 53 35 18 15 28 100 100 100 100 100 100 100 100 100 100 100 100 100 100 100 100 100 37 49 100
100 100 100 100 100 44 21 22 42 5 5 5 5 6 9 11 41 62 62 64 38 55 85 99 100 100 100 100 100 100 100 100 100 100 100 100 93 100 100 100 100 6 100
78 73 99 94 89 85 66 83 92 84 71 80 32 5 14 37 51 96 84 99 57 65 98 100 100 100 100 100 100 100 100 100 100 98 100 100 100 95 100 100 100 46 22
69 77 98 98 98 100 100 12 10 6 7 28 9 80 58 68 71 98 92 100 87 81 100 100 100 100 100 100 100 100 100 100 100 100 100 100 100 100 82 96 100 62 19
100 100 100 98 100 97 79 38 71 82 9 12 59 89 89 78 94 100 99 100 100 100 100 100 100 100 100 100 100 100 100 100 100 100 100 100 100 100 100 100 100 93 68
100 100 100 100 100 100 100 99 81 58 49 44 74 94 100 100 98 99 100 100 100 100 100 99 100 100 100 100 100 100 100 100 100 100 100 100 100 100 100 100 100 100 100
100 100 100 100 100 100 100 100 99 70 18 28 16 55 81 98 100 100 100 100 100 100 100 96 100 100 100 100 100 100 100 100 100 100 100 100 100 100 100 100 100 100 100
100 100 100 100 100 100 100 99 77 99 100 100 80 70 84 97 100 100 100 100 94 89 97 100 100 100 100 100 100 100 100 100 100 94 100 100 100 100 100 100 100 100 98
100 100 100 100 100 100 100 99 82 100 95 88 98 100 100 100 100 100 94 99 100 100 100 100 100 100 100 100 100 100 100 100 100 100 100 100 100 100 100 100 100 100 100
93 92 92 98 100 100 98 88 100 100 100 100 100 100 100 100 100 100 99 97 100 100 100 100 100 100 100 100 100 100 100 100 100 100 100 100 100 100 100 100 100 100 100
97 100 98 100 100 100 90 86 100 95 100 100 85 93 100 100 100 100 100 100 100 100 100 100 100 100 100 100 100 100 100 100 100 95 100 100 100 100 100 100 100 98 100
97 84 100 100 82 82 87 56 95 100 100 100 100 100 100 100 100 100 100 96 99 100 100 100 100 100 100 100 100 100 100 100 96 100 100 100 89 100 100 100 100 100 98
97 100 87 81 22 36 39 12 44 88 89 93 99 98 95 100 100 100 100 100 100 100 100 100 100 100 100 99 100 100 100 100 100 100 100 100 96 100 100 100 100 100 100
78 76 60 89 100 79 84 9 5 44 99 100 100 99 97 100 98 100 100 100 100 100 100 100 99 100 96 93 99 100 100 100 100 100 100 100 100 100 100 100 100 100 100
66 42 24 39 97 100 95 84 96 100 96 54 62 64 98 100 100 100 100 100 100 100 100 100 100 97 100 100 100 100 100 100 100 100 100 100 100 100 100 100 100 100 100
5 75 89 100 100 100 100 92 37 5 5 5 5 5 44 61 100 100 100 100 100 100 100 99 100 100 100 100 100 100 100 100 100 100 100 100 100 100 100 100 100 100 100
100 100 100 100 96 85 54 5 5 5 5 5 5 5 9 58 86 100 100 100 100 100 100 100 100 100 100 100 100 100 100 100 100 100 100 100 100 100 100 100 100 100 100
100 100 95 59 65 67 44 5 5 5 5 5 5 23 75 91 97 100 100 100 100 100 100 100 100 100 100 100 100 100 100 100 100 100 100 100 100 100 100 100 100 100 100